COSMOS 1275 DEB

Satellite information

Favourite Embed

Satellite Type and Status

DEBRISIN ORBIT

Key statistics

Satellite COSMOS 1275 DEB at a glance.

Uptime

16168

Days in orbit

Revolutions

≈ 14.1

Per day

Orbit

LEO

Low Earth Orbit

Inclination

82.9

Latest

Satellite identification and parameters

Extended collection of information and parameters for COSMOS 1275 DEB.

Object identification

Identified? True

Debris? True

Object name: COSMOS 1275 DEB

International designator: 1981-053KM

Object number (NORAD): 17618

Object ID (CCSDS): 17618

Country: COMMONWEALTH OF INDEPENDENT STATES (CIS)

Current information (Y/N): Y

RCS size: SMALL

Orbital parameters

Period: 102.021 minutes

Inclination: 82.85 deg

SMA: 7232.482 km

Apoapsis: 888.854 km

Periapsis: 819.841 km

RAAN: 4.9848 deg

Eccentricy: 0.00477111

Argument of periapsis: 299.7926 deg

Mean anomaly: 89.0194 deg

Mean motion: 14.11470082 rev/day

Mean motion (dot): 0.0000269 rev/day2

B* drag term: 0.0014610099 1/REarth

Two-line elements (TLE)

Creation date: Sept. 8, 2025, 6:18 p.m.

Reference frame: TEME

Reference center: EARTH

Epoch: Sept. 8, 2025, 7:26 a.m. UTC

TLE line 0: 0 COSMOS 1275 DEB

TLE line 1: 1 17618U 81053KM 25251.30978939 .00002690 00000-0 14610-2 0 9994

TLE line 2: 2 17618 82.8500 4.9848 0047711 299.7926 89.0194 14.11470082 54216

Live tracking on map

Real-time ground track for satellite COSMOS 1275 DEB.

In-orbit conjunctions

A list of the most updated potential collisions computed for object COSMOS 1275 DEB.

Target Orbit TCA Probability of collision Miss distance Type
DELTA 1 DEB SSO 2025-07-14 06:34:51 0.0002388606 95.0 (m) DEBRIS
CZ-6A DEB LEO 2025-01-30 17:18:30 0.0002097219 360.0 (m) DEBRIS
DELTA 1 DEB LEO 2024-11-12 19:04:26 0.001382545 207.0 (m) DEBRIS

Associated space launch

Navigation satellite providing location information for the Tsiklon-B navigation system

COSMOS 1275 DEB was lifted into orbit during the mission ‘Kosmos-3M | Parus 27’, on board a Kosmos-3M space rocket.

The launch took place on June 4, 1981, 3:41 p.m. from 132/2.

For more information about the launch, click the button.

Launch to space Kosmos-3M | Parus 27
Kosmos-3M | Parus 27

Agency: N/A

Status: Launch Successful

Launch date: June 4, 1981, 3:41 p.m. UTC

Rocket: Kosmos-3M

Launch pad: 132/2

Location: Plesetsk Cosmodrome, Russian Federation

...

Latest news about this satellite

There are no fresh news available about this satellite. Check back as we update our databases every day.


Newsletter sign-up

Weekly statistics, charts and insights to help you stay on top of the space industry.